パンスターズ彗星

C/2021 Q6 ( PanSTARRS )

English version
Home page
Updated on September 4, 2024

---------------------------------------------------------------------

・ プロフィール

発見日 2021年8月22日
発見光度 22.2等
発見者 Pan-STARRS 1 telescope (Haleakala)

・ 写真集

・ 軌道要素

Epoch 2024 Oct. 17.0 TT = JDT 2460600.5
T 2024 Mar. 25.19129 TT                                 Rudenko
q   8.7078511            (2000.0)            P               Q
z  -0.0002745      Peri.  141.05494     +0.96876146     -0.10227565
 +/-0.0000020      Node   133.56408     -0.21737931     -0.78868036
e   1.0023899      Incl.  161.83302     +0.11936276     -0.60623673
>From 327 observations 2021 Jan. 3-2024 Aug. 31, mean residual 0".4.

・ 光度変化

        m1 = -4.5 + 5 logΔ + 20.0 log r(t + 250)

---------------------------------------------------------------------

軌道要素はM.P.E.C. 2024-R10に掲載されたものです。
光度グラフはComet for Windowsで作成したものです。

---------------------------------------------------------------------

Copyright(C) Seiichi Yoshida (comet@aerith.net). All rights reserved.